KLM826 LIMC-EHAM

Flight info

Callsign KLM826
Flight time N/A
Altitude 40000
Route AOSTA DCT ORSUD DCT MOLUS DCT GILIR DCT PENDU DCT IXILU DCT EPL DCT ROUSY DCT KOMOB DCT BUB Y28 HELEN
Aircraft B77W/H-SDE1E2E3FGHIJ2J3J4J5M1RWXY/LB1D1

Departure

Time 2026-02-18 11:41
Airport Milan Malpensa International Airport (LIMC)

Arrival

Time N/A
Airport Amsterdam Airport Schiphol (EHAM)
Time Latitude Longitude Altitude Speed Heading
2026-02-18 10:52 45.62402 8.71791 757 ft 0 kts 323°
2026-02-18 11:29 45.62398 8.71796 758 ft 2 kts 325°
2026-02-18 11:29 45.62362 8.71818 754 ft 3 kts 360°
2026-02-18 11:29 45.62343 8.71814 753 ft 3 kts 28°
2026-02-18 11:30 45.62328 8.71798 758 ft 3 kts 56°
2026-02-18 11:30 45.62320 8.71775 752 ft 2 kts 76°
2026-02-18 11:30 45.62319 8.71768 758 ft 1 kts 79°
2026-02-18 11:32 45.62319 8.71769 756 ft 1 kts 79°
2026-02-18 11:32 45.62321 8.71784 754 ft 2 kts 80°
2026-02-18 11:32 45.62325 8.71818 753 ft 5 kts 80°
2026-02-18 11:33 45.62331 8.71868 755 ft 6 kts 80°
2026-02-18 11:33 45.62266 8.71936 754 ft 10 kts 168°
2026-02-18 11:33 45.62184 8.71958 754 ft 14 kts 169°
2026-02-18 11:34 45.62077 8.71988 753 ft 16 kts 169°
2026-02-18 11:34 45.61961 8.72021 754 ft 19 kts 169°
2026-02-18 11:34 45.61818 8.72060 755 ft 22 kts 169°
2026-02-18 11:34 45.61663 8.72103 758 ft 23 kts 169°
2026-02-18 11:35 45.61497 8.72149 757 ft 24 kts 169°
2026-02-18 11:35 45.61331 8.72195 754 ft 24 kts 168°
2026-02-18 11:35 45.61187 8.72234 758 ft 19 kts 169°
2026-02-18 11:35 45.61072 8.72267 754 ft 11 kts 166°
2026-02-18 11:36 45.61038 8.72354 755 ft 11 kts 84°
2026-02-18 11:36 45.61052 8.72464 756 ft 11 kts 79°
2026-02-18 11:36 45.61066 8.72574 753 ft 12 kts 79°
2026-02-18 11:36 45.61082 8.72700 750 ft 14 kts 79°
2026-02-18 11:37 45.61102 8.72847 750 ft 16 kts 78°
2026-02-18 11:37 45.61196 8.73110 754 ft 16 kts 33°
2026-02-18 11:37 45.61287 8.73197 754 ft 16 kts 34°
2026-02-18 11:38 45.61383 8.73266 753 ft 16 kts
2026-02-18 11:38 45.61490 8.73243 754 ft 16 kts 348°
2026-02-18 11:38 45.61573 8.73221 757 ft 8 kts 356°
2026-02-18 11:38 45.61614 8.73272 753 ft 8 kts 69°
2026-02-18 11:39 45.61627 8.73358 756 ft 9 kts 79°
2026-02-18 11:39 45.61622 8.73449 753 ft 10 kts 111°
2026-02-18 11:39 45.61592 8.73540 752 ft 11 kts 108°
2026-02-18 11:39 45.61590 8.73656 748 ft 13 kts 81°
2026-02-18 11:40 45.61615 8.73726 746 ft 8 kts 30°
2026-02-18 11:40 45.61683 8.73719 746 ft 21 kts 348°
2026-02-18 11:40 45.62054 8.73616 747 ft 96 kts 349°
2026-02-18 11:40 45.62972 8.73363 760 ft 165 kts 348°
2026-02-18 11:41 45.64116 8.73038 1348 ft 170 kts 350°
2026-02-18 11:41 45.66520 8.72700 2643 ft 174 kts 360°
2026-02-18 11:41 45.67730 8.72674 3235 ft 175 kts 360°
2026-02-18 11:42 45.68948 8.72645 3788 ft 176 kts 360°
2026-02-18 11:42 45.70208 8.72620 4132 ft 190 kts 359°
2026-02-18 11:42 45.71577 8.72461 4244 ft 205 kts 343°
2026-02-18 11:42 45.72738 8.71189 4357 ft 223 kts 302°
2026-02-18 11:43 45.73065 8.69001 4885 ft 233 kts 264°
2026-02-18 11:43 45.72734 8.66698 5658 ft 238 kts 255°
2026-02-18 11:43 45.72312 8.64438 6626 ft 238 kts 255°
2026-02-18 11:43 45.71890 8.62134 7559 ft 240 kts 256°
2026-02-18 11:44 45.71379 8.59848 8356 ft 245 kts 244°
2026-02-18 11:44 45.70473 8.57634 8724 ft 271 kts 237°
2026-02-18 11:44 45.69418 8.55338 9482 ft 280 kts 237°
2026-02-18 11:44 45.68351 8.52984 10390 ft 286 kts 238°
2026-02-18 11:45 45.67234 8.50513 10903 ft 309 kts 238°
2026-02-18 11:45 45.64689 8.44830 11698 ft 361 kts 238°
2026-02-18 11:45 45.63328 8.41781 12761 ft 367 kts 239°
2026-02-18 11:46 45.61869 8.38760 13957 ft 371 kts 234°
2026-02-18 11:46 45.60208 8.35894 15032 ft 373 kts 234°
2026-02-18 11:46 45.58901 8.32712 15788 ft 374 kts 254°
2026-02-18 11:46 45.58478 8.29069 16823 ft 372 kts 271°
2026-02-18 11:47 45.58800 8.25429 17968 ft 369 kts 287°
2026-02-18 11:47 45.59595 8.21948 19047 ft 370 kts 290°
2026-02-18 11:47 45.60447 8.18455 19946 ft 376 kts 290°
2026-02-18 11:47 45.61312 8.14902 20791 ft 382 kts 290°
2026-02-18 11:48 45.62178 8.11287 21646 ft 387 kts 289°
2026-02-18 11:48 45.63037 8.07630 22469 ft 390 kts 289°
2026-02-18 11:48 45.63901 8.03923 23258 ft 395 kts 289°
2026-02-18 11:48 45.64766 8.00175 24010 ft 399 kts 288°
2026-02-18 11:49 45.65609 7.96510 24703 ft 403 kts 288°
2026-02-18 11:49 45.67357 7.88879 26130 ft 409 kts 288°
2026-02-18 11:49 45.68241 7.85005 26885 ft 411 kts 289°
2026-02-18 11:50 45.69129 7.81112 27505 ft 413 kts 288°
2026-02-18 11:50 45.70021 7.77187 28099 ft 416 kts 289°
2026-02-18 11:50 45.70916 7.73249 28723 ft 418 kts 289°
2026-02-18 11:50 45.71814 7.69286 29262 ft 419 kts 289°
2026-02-18 11:51 45.72713 7.65308 29748 ft 422 kts 289°
2026-02-18 11:51 45.73616 7.61306 30200 ft 423 kts 289°
2026-02-18 11:51 45.74520 7.57296 30779 ft 421 kts 288°
2026-02-18 11:51 45.75416 7.53311 31351 ft 419 kts 288°
2026-02-18 11:52 45.76302 7.49364 32010 ft 414 kts 288°
2026-02-18 11:52 45.77178 7.45455 32597 ft 412 kts 288°
2026-02-18 11:52 45.78049 7.41561 33135 ft 408 kts 288°
2026-02-18 11:52 45.79033 7.37787 33535 ft 405 kts 296°
2026-02-18 11:53 45.80589 7.34385 33879 ft 410 kts 306°
2026-02-18 11:53 45.84876 7.29030 34754 ft 417 kts 320°
2026-02-18 11:53 45.87287 7.26694 35041 ft 418 kts 320°
2026-02-18 11:54 45.89704 7.24344 35337 ft 419 kts 320°
2026-02-18 11:54 45.92090 7.21975 35829 ft 417 kts 319°
2026-02-18 11:54 45.94467 7.19570 36196 ft 417 kts 319°
2026-02-18 11:54 45.96833 7.17158 36488 ft 418 kts 319°
2026-02-18 11:55 45.99204 7.14728 36835 ft 418 kts 319°
2026-02-18 11:55 46.01556 7.12315 37405 ft 411 kts 319°
2026-02-18 11:55 46.03869 7.09938 37935 ft 406 kts 319°
2026-02-18 11:55 46.06171 7.07570 38273 ft 406 kts 319°
2026-02-18 11:56 46.08473 7.05198 38438 ft 410 kts 319°
2026-02-18 11:56 46.10798 7.02803 38616 ft 411 kts 319°
2026-02-18 11:56 46.13129 7.00399 38788 ft 413 kts 319°
2026-02-18 11:56 46.15403 6.98051 39003 ft 413 kts 319°
2026-02-18 11:57 46.17735 6.95642 39228 ft 413 kts 319°
2026-02-18 11:57 46.22426 6.90787 39622 ft 416 kts 319°
2026-02-18 11:57 46.24781 6.88343 39838 ft 416 kts 319°
2026-02-18 11:58 46.27107 6.85927 39909 ft 420 kts 319°
2026-02-18 11:58 46.31854 6.80996 39967 ft 418 kts 319°
2026-02-18 11:59 46.36537 6.76120 39973 ft 412 kts 319°
2026-02-18 11:59 46.41180 6.71271 39965 ft 411 kts 319°
2026-02-18 12:00 46.45984 6.66745 39977 ft 416 kts 326°
2026-02-18 12:00 46.51214 6.63042 39963 ft 418 kts 328°
2026-02-18 12:01 46.56471 6.59384 39963 ft 420 kts 328°
2026-02-18 12:01 46.64381 6.53823 39957 ft 421 kts 327°
2026-02-18 12:02 46.69651 6.50091 39950 ft 422 kts 327°
2026-02-18 12:02 46.74937 6.46341 39960 ft 422 kts 327°
2026-02-18 12:03 46.80218 6.42581 39910 ft 423 kts 327°
2026-02-18 12:03 46.85469 6.38835 39907 ft 422 kts 327°
2026-02-18 12:04 46.90737 6.35073 39898 ft 421 kts 327°
2026-02-18 12:04 46.95991 6.31311 39893 ft 419 kts 327°
2026-02-18 12:05 47.03832 6.25679 39889 ft 417 kts 327°
2026-02-18 12:06 47.09047 6.21931 39890 ft 417 kts 327°
2026-02-18 12:06 47.14257 6.18194 39872 ft 417 kts 327°
2026-02-18 12:07 47.19479 6.14442 39865 ft 417 kts 327°